Location: Jackson
(42.2460°N, 84.4010°W)
Time: 10:05:41
(UTC-04:00)

Injun/Solrad 3 - Pass Details

Date: 14 February 2026
Orbit: 871 x 985 km, 66.8° (Epoch: 16 March)

Event Time Altitude Azimuth Distance (km) Brightness Sun altitude
Rises 19:28:10 0° 337° (NNW) 3,552 11.2 -15.2°
Reaches altitude 10° 19:31:39 10° 357° (N) 2,630 10.3 -15.9°
Maximum altitude 19:35:34 17° 37° (NE) 2,174 9.5 -16.6°
Enters shadow 19:36:30 17° 48° (NE) 2,208 9.4 -16.8°
